Time,TemperatureF,DewpointF,PressureIn,WindDirection,WindDirectionDegrees,WindSpeedMPH,WindSpeedGustMPH,Humidity,HourlyPrecipIn,Conditions,Clouds,dailyrainin,SoftwareType,DateUTC
2013-05-12 15:52:00,53.0,28.0,30.06,WNW,290,4.0,7.0,38,0.00,,,0.00,,2013-05-12 20:52:00,
2013-05-12 16:01:00,53.0,29.0,30.06,West,272,2.0,8.0,39,0.00,,,0.00,,2013-05-12 21:01:00,
2013-05-12 16:11:00,52.0,28.0,30.05,NNW,336,3.0,9.0,39,0.00,,,0.00,,2013-05-12 21:11:00,
2013-05-12 16:21:00,52.0,28.0,30.05,NNW,336,3.0,9.0,39,0.00,,,0.00,,2013-05-12 21:21:00,
2013-05-12 16:33:00,53.0,27.0,30.05,West,267,4.0,9.0,37,0.00,,,0.00,,2013-05-12 21:33:00,
2013-05-12 16:42:00,53.0,27.0,30.05,West,267,4.0,9.0,37,0.00,,,0.00,,2013-05-12 21:42:00,
2013-05-12 16:52:00,54.0,28.0,30.05,NW,326,4.0,9.0,37,0.00,,,0.00,,2013-05-12 21:52:00,
2013-05-12 17:02:00,53.0,27.0,30.05,NW,310,3.0,13.0,36,0.00,,,0.00,,2013-05-12 22:02:00,
2013-05-12 17:12:00,53.0,26.0,30.05,WNW,294,3.0,9.0,35,0.00,,,0.00,,2013-05-12 22:12:00,
2013-05-12 17:23:00,53.0,26.0,30.05,WNW,294,3.0,9.0,35,0.00,,,0.00,,2013-05-12 22:23:00,
2013-05-12 17:33:00,53.0,26.0,30.05,NW,317,3.0,7.0,35,0.00,,,0.00,,2013-05-12 22:33:00,
2013-05-12 17:42:00,53.0,26.0,30.05,NW,317,3.0,7.0,35,0.00,,,0.00,,2013-05-12 22:42:00,
2013-05-12 17:52:00,54.0,26.0,30.05,WNW,284,3.0,12.0,34,0.00,,,0.00,,2013-05-12 22:52:00,
2013-05-12 18:02:00,54.0,26.0,30.05,WNW,290,3.0,8.0,33,0.00,,,0.00,,2013-05-12 23:02:00,
2013-05-12 18:12:00,53.0,25.0,30.05,NNW,341,3.0,8.0,33,0.00,,,0.00,,2013-05-12 23:12:00,
2013-05-12 18:22:00,53.0,25.0,30.05,NNW,341,3.0,8.0,33,0.00,,,0.00,,2013-05-12 23:22:00,
2013-05-12 18:32:00,54.0,26.0,30.04,NW,308,3.0,8.0,34,0.00,,,0.00,,2013-05-12 23:32:00,
2013-05-12 18:42:00,54.0,26.0,30.04,NW,308,3.0,8.0,34,0.00,,,0.00,,2013-05-12 23:42:00,
2013-05-12 18:52:00,53.0,25.0,30.05,NW,309,2.0,7.0,33,0.00,,,0.00,,2013-05-12 23:52:00,
2013-05-12 19:01:00,53.0,25.0,30.04,NW,317,3.0,8.0,33,0.00,,,0.00,,2013-05-13 00:01:00,
2013-05-12 19:11:00,53.0,25.0,30.04,NW,317,3.0,8.0,33,0.00,,,0.00,,2013-05-13 00:11:00,
2013-05-12 19:21:00,53.0,25.0,30.05,NW,324,3.0,6.0,33,0.00,,,0.00,,2013-05-13 00:21:00,
2013-05-12 19:32:00,53.0,25.0,30.04,NNW,342,2.0,6.0,33,0.00,,,0.00,,2013-05-13 00:32:00,
2013-05-12 19:42:00,53.0,25.0,30.05,NW,319,2.0,8.0,33,0.00,,,0.00,,2013-05-13 00:42:00,
2013-05-12 19:51:00,53.0,25.0,30.05,NW,319,2.0,8.0,33,0.00,,,0.00,,2013-05-13 00:51:00,
2013-05-12 20:01:00,52.0,24.0,30.05,NNW,341,3.0,8.0,33,0.00,,,0.00,,2013-05-13 01:01:00,
2013-05-12 20:11:00,52.0,24.0,30.05,NNW,341,3.0,8.0,33,0.00,,,0.00,,2013-05-13 01:11:00,
2013-05-12 20:22:00,51.0,24.0,30.05,North,354,2.0,8.0,34,0.00,,,0.00,,2013-05-13 01:22:00,
2013-05-12 20:31:00,50.0,23.0,30.06,NNW,347,1.0,6.0,35,0.00,,,0.00,,2013-05-13 01:31:00,
2013-05-12 20:42:00,50.0,23.0,30.06,NNW,347,1.0,6.0,35,0.00,,,0.00,,2013-05-13 01:42:00,
2013-05-12 20:52:00,49.0,23.0,30.06,NNW,341,1.0,5.0,35,0.00,,,0.00,,2013-05-13 01:52:00,
2013-05-12 21:01:00,49.0,23.0,30.07,North,1,1.0,4.0,36,0.00,,,0.00,,2013-05-13 02:01:00,
2013-05-12 21:11:00,49.0,23.0,30.07,North,1,1.0,4.0,36,0.00,,,0.00,,2013-05-13 02:11:00,
2013-05-12 21:21:00,48.0,23.0,30.07,NE,44,0.0,2.0,37,0.00,,,0.00,,2013-05-13 02:21:00,
2013-05-12 21:32:00,46.0,22.0,30.08,North,0,0.0,0.0,38,0.00,,,0.00,,2013-05-13 02:32:00,
2013-05-12 21:41:00,46.0,22.0,30.08,North,0,0.0,0.0,38,0.00,,,0.00,,2013-05-13 02:41:00,
2013-05-12 21:51:00,45.0,22.0,30.08,NE,45,0.0,2.0,40,0.00,,,0.00,,2013-05-13 02:51:00,
2013-05-12 22:02:00,45.0,22.0,30.08,NE,45,0.0,2.0,40,0.00,,,0.00,,2013-05-13 03:02:00,
2013-05-12 22:11:00,45.0,22.0,30.08,NE,45,0.0,2.0,40,0.00,,,0.00,,2013-05-13 03:11:00,
2013-05-12 22:21:00,45.0,22.0,30.08,NE,45,0.0,2.0,40,0.00,,,0.00,,2013-05-13 03:21:00,